STARLINK-34225 (64414 NORAD) Tracking and Keplerian Element Data

This shows tracking and keplerian element data for the satellite.

Feedback or suggestion? Click here.




ElementValue
Catalog64414
NameSTARLINK-34225
Epoch Orbit2937
Epoch Day354.18778543
Epoch Year2025
RAAN275.106
Inclination70.0012
Eccentricity0.0002462
Argument of Perigee277.4575
Mean Anonmoly82.6304
Mean Motion14.98333559
Decay Rate4.409E-05
L11 64414U 25129C 25354.18778543 .00004409 00000+0 37707-3 0 9993
L22 64414 70.0012 275.1060 0002462 277.4575 82.6304 14.98333559 29377



Live tracking and technical data element details for STARLINK-34225 (NORAD 64414). STARLINK-34225 can be tracked NOW for your location showing map with azimuth and elevation plus other details from your city location.







IsCatalogInMostPopularTable: catalog: 64414, numindb: 10
Update: records affected: 1



GetName: 64414 STARLINK-34225

Hit Count: updated at: Mon, 20 Apr 2026 10:48:26 GMT